Regional Weather Roundup
Issued by NWS

Home | Current Version | Previous Version | Graphics & Text | Print | Product List | Glossary On
Versions: 1 2 3 4 5 6 7 8 9 10 11 12 13 14 15 16 17 18 19 20 21 22 23 24 25 26 27 28
000
ASUS45 KTFX 301910
RWRMT
MONTANA REGIONAL WEATHER ROUNDUP
NATIONAL WEATHER SERVICE GREAT FALLS MT
100 PM MDT TUE AUG 30 2016

NOTE: "FAIR" INDICATES FEW OR NO CLOUDS BELOW 12000 FEET WITH NO
SIGNIFICANT WEATHER AND/OR OBSTRUCTIONS TO VISIBILITY.

MTZ001>007-043-302000-
WEST OF THE DIVIDE

CITY           SKY/WX    TMP DP  RH WIND       PRES   REMARKS
KALISPELL      PTSUNNY   81  45  28 NE5       30.03F
MISSOULA       CLOUDY    78  42  27 NW3       30.05F
BUTTE          CLOUDY    77  32  19 VRB3      30.22F
MULLAN PASS    CLOUDY    69  40  34 SE8       30.20S
DEER LODGE       N/A     73  37  27 CALM      30.19F
EUREKA           N/A     77  48  36 CALM      30.04F
HAMILTON         N/A     72  36  26 NE3       30.08F
LIBBY            N/A     77  45  31 CALM      30.01F
PLAINS           N/A     80  45  29 CALM      30.01F
THOMPSON FALLS   N/A     79  47  32 E8        30.02F
$$

MTZ008-052>055-302000-
SOUTHWEST MONTANA

CITY           SKY/WX    TMP DP  RH WIND       PRES   REMARKS
BOZEMAN        SUNNY     78  41  26 NE3       30.16F
DILLON         CLOUDY    80  31  16 N6        30.18F
W YELLOWSTONE  CLOUDY    79  25  13 SE3       30.32F
ENNIS          SUNNY     88  25  10 NW8       30.23F
THREE FORKS      N/A     78  78 100 CALM      30.13F
TWIN BRIDGES     N/A     77  37  23 CALM      30.15F
$$

MTZ009-010-012-014-046-048-049-054-302000-
EAST SLOPES AND CENTRAL MONTANA

CITY           SKY/WX    TMP DP  RH WIND       PRES   REMARKS
CUT BANK       PTSUNNY   78  48  34 SE5       30.11F
GREAT FALLS    MOSUNNY   82  47  29 VRB3      30.10F
MALMSTROM AFB  SUNNY     79  46  31 N3        30.10F
HELENA         CLOUDY    77  44  30 CALM      30.12F
CHOTEAU          N/A     81  45  28 VRB5      30.13F
CONRAD           N/A     79  56  45 CALM      30.12F
$$

MTZ011-013-016-021-045-047-050-051-302000-
NORTH CENTRAL MONTANA

CITY           SKY/WX    TMP DP  RH WIND       PRES   REMARKS
HAVRE          SUNNY     80  52  37 E9        30.07F
LEWISTOWN      MOSUNNY   79  49  34 CALM      30.14F
N BAR RANCH      N/A     77  48  36 E7        30.18S
CHINOOK          N/A     75  52  43 E10       30.08F
$$

MTZ017>020-022>027-061-062-302000-
NORTHEAST MONTANA

CITY           SKY/WX    TMP DP  RH WIND       PRES   REMARKS
GLASGOW        SUNNY     78  52  40 E9        30.09F
JORDAN           N/A     80  56  43 SE8       30.09F
SIDNEY         PTSUNNY   78  61  55 SE8       30.16R
WOLF POINT     SUNNY     84  57  39 E8        30.10F
PLENTYWOOD       N/A     82  52  34 SE9G17    30.15S
POPLAR           N/A     81  61  50 SE10G17   30.11F
SCOBEY           N/A     84  53  34 E8        30.12F
$$

MTZ028>42-056>058-302000-
SOUTHCENTRAL AND SOUTHEAST MONTANA

CITY           SKY/WX    TMP DP  RH WIND       PRES   REMARKS
BAKER          CLOUDY    79  62  56 SE15      30.20F
BILLINGS       MOSUNNY   84  45  25 E6        30.12F
LIVINGSTON     SUNNY     81  44  27 N10       30.15F
MILES CITY     MOSUNNY   85  58  39 SE14G24   30.09F
EKALAKA          N/A     81  58  45 SE12      30.17F
FORSYTH          N/A     81  57  44 NE7       30.08F
LAUREL           N/A     82  48  30 NE7       30.10F
ROUNDUP          N/A     80  46  30 S7        30.02F
$$

REGIONAL REPORTS...DAKOTAS

CITY           SKY/WX    TMP DP  RH WIND       PRES   REMARKS
WILLISTON      CLOUDY    80  50  34 S13       30.15F
MINOT          SUNNY     81  43  26 SE12      30.23F
DICKINSON      CLOUDY    79  52  38 SE17      30.20F
CROSBY           N/A     82  37  20 SE16      30.20F
WATFORD CITY     N/A     77  50  38 SE18G28   30.16F
BISMARCK       SUNNY     81  45  28 SE7       30.23F
GRAND FORKS    MOSUNNY   78  51  38 W3        30.22F
FARGO          SUNNY     79  52  38 CALM      30.23S
BUFFALO SD       N/A     84  63  49 SE15      30.15F
RAPID CITY     SUNNY     80  65  59 SE14G21   30.23F
$$

REGIONAL REPORTS...WYOMING/IDAHO/WASHINGTON

CITY           SKY/WX    TMP DP  RH WIND       PRES   REMARKS
GILLETTE       SUNNY     86  40  19 S20G29    30.22F
SHERIDAN       SUNNY     93  32  11 S8        30.12F
BUFFALO WY     SUNNY     90  32  12 S22G31    30.22F
CODY           SUNNY     88  34  14 SE12      30.20F
YELLOWSTONE LA   N/A     72  31  22 E5        30.44F
IDAHO FALLS    SUNNY     86  34  15 W6        30.16F
SALMON         CLOUDY    73  37  27 NW3       30.12F
BOISE          CLOUDY    80  40  23 NE6       29.98F
SPOKANE        CLOUDY    78  46  32 E7        29.95F
$$

REGIONAL REPORTS...ALBERTA

CITY           SKY/WX    TMP DP  RH WIND       PRES   REMARKS
EDMONTON       MOSUNNY   68  50  52 E15       30.12F
CALGARY        MOSUNNY   72  55  56 SE13G18   30.10S
LETHBRIDGE     PTSUNNY   75  55  50 E6        30.08F
MEDICINE HAT   MOSUNNY   79  54  41 NE6       30.08F
WATERTON GATE    N/A     77  54  44 NE8         N/A
MILK RIVER       N/A     84  48  28 E9          N/A
ONEFOUR          N/A     84  46  26 SE14        N/A
$$

REGIONAL REPORTS...SASKATCHEWAN

CITY           SKY/WX    TMP DP  RH WIND       PRES   REMARKS
SWIFT CURRENT  SUNNY     73  54  49 E16G25    30.14F
REGINA         MOSUNNY   77  48  36 E12G17    30.18F
SASKATOON      MOSUNNY   70  45  40 E13       30.26F
CYPRESS HILLS    N/A     81  48  32 E7          N/A
VAL MARIE        N/A     84  46  26 SE13G20     N/A
ROCKGLEN         N/A     81  54  39 E8          N/A
ASSINIBOIA       N/A     68  46  45 E16G24      N/A
$$




USA.gov is the U.S. government's official web portal to all federal, state and local government web resources and services.